| time (UTC) | temp F | wind direction | speed MPH | gust MPH | rain 1hr in | rain 24hr in | rain mn in | humidity % | barometer mb |
| 20260507211426 | 56 | 218 | 2.0 | 5.0 | 0.00 | 0.06 | 0.06 | 79 | 1009.4 |
| 20260507210923 | 56 | 112 | 5.0 | 9.0 | 0.00 | 0.06 | 0.06 | 79 | 1009.2 |
| 20260507210420 | 56 | 328 | 2.0 | 5.0 | 0.00 | 0.06 | 0.06 | 78 | 1009.1 |
| 20260507205917 | 57 | 285 | 1.0 | 6.0 | 0.00 | 0.06 | 0.06 | 78 | 1009.2 |
| 20260507205414 | 56 | 126 | 3.0 | 6.0 | 0.00 | 0.06 | 0.06 | 77 | 1008.9 |
| 20260507204910 | 57 | 160 | 3.0 | 5.0 | 0.00 | 0.06 | 0.06 | 77 | 1008.7 |
| 20260507204407 | 56 | 239 | 0.0 | 6.0 | 0.00 | 0.06 | 0.06 | 76 | 1009.2 |
| 20260507203904 | 57 | 120 | 3.0 | 3.0 | 0.00 | 0.06 | 0.06 | 76 | 1009.0 |
| 20260507203402 | 57 | 215 | 0.0 | 6.0 | 0.00 | 0.06 | 0.06 | 76 | 1009.2 |
| 20260507202858 | 56 | 243 | 6.0 | 6.0 | 0.00 | 0.06 | 0.06 | 75 | 1009.1 |
| 20260507202355 | 57 | 117 | 1.0 | 9.0 | 0.00 | 0.06 | 0.06 | 76 | 1008.9 |
| 20260507201850 | 56 | 239 | 8.0 | 8.0 | 0.00 | 0.06 | 0.06 | 75 | 1009.3 |
| 20260507201346 | 56 | 270 | 1.0 | 11.0 | 0.00 | 0.06 | 0.06 | 76 | 1009.0 |
| 20260507200843 | 55 | 14 | 1.0 | 13.0 | 0.00 | 0.06 | 0.06 | 77 | 1009.5 |
| 20260507200339 | 56 | 130 | 6.0 | 8.0 | 0.00 | 0.06 | 0.06 | 75 | 1009.5 |
| 20260507195835 | 57 | 100 | 4.0 | 8.0 | 0.00 | 0.06 | 0.06 | 74 | 1009.6 |
| 20260507195332 | 57 | 124 | 2.0 | 6.0 | 0.00 | 0.06 | 0.06 | 75 | 1009.5 |
| 20260507194830 | 57 | 113 | 7.0 | 7.0 | 0.00 | 0.06 | 0.06 | 75 | 1009.5 |
| 20260507194326 | 57 | 147 | 3.0 | 6.0 | 0.00 | 0.06 | 0.06 | 74 | 1009.4 |
| 20260507193822 | 57 | 313 | 3.0 | 4.0 | 0.00 | 0.06 | 0.06 | 73 | 1009.8 |
| 20260507193320 | 57 | 103 | 1.0 | 5.0 | 0.00 | 0.06 | 0.06 | 72 | 1009.8 |
| 20260507192815 | 57 | 90 | 0.0 | 2.0 | 0.00 | 0.06 | 0.06 | 71 | 1009.9 |
| 20260507192312 | 57 | 117 | 3.0 | 3.0 | 0.00 | 0.06 | 0.06 | 73 | 1009.7 |
| 20260507191808 | 58 | 86 | 5.0 | 5.0 | 0.00 | 0.06 | 0.06 | 71 | 1009.8 |
| 20260507191305 | 57 | 117 | 5.0 | 6.0 | 0.00 | 0.06 | 0.06 | 72 | 1010.0 |
| 20260507190802 | 57 | 265 | 2.0 | 5.0 | 0.00 | 0.06 | 0.06 | 73 | 1010.1 |
| 20260507190301 | 56 | 86 | 3.0 | 5.0 | 0.00 | 0.06 | 0.06 | 75 | 1009.8 |
| 20260507185759 | 56 | 79 | 3.0 | 5.0 | 0.00 | 0.06 | 0.06 | 77 | 1009.6 |
| 20260507185255 | 56 | 143 | 3.0 | 4.0 | 0.00 | 0.06 | 0.06 | 76 | 1009.9 |
| 20260507184752 | 56 | 112 | 2.0 | 6.0 | 0.00 | 0.06 | 0.06 | 77 | 1010.1 |
| 20260507184251 | 56 | 160 | 0.0 | 5.0 | 0.00 | 0.06 | 0.06 | 77 | 1010.3 |
| 20260507183747 | 56 | 289 | 1.0 | 5.0 | 0.00 | 0.06 | 0.06 | 77 | 1010.2 |
| 20260507183244 | 55 | 115 | 2.0 | 4.0 | 0.00 | 0.06 | 0.06 | 77 | 1010.1 |
| 20260507182741 | 55 | 195 | 0.0 | 7.0 | 0.00 | 0.06 | 0.06 | 78 | 1010.5 |
| 20260507182236 | 55 | 160 | 1.0 | 4.0 | 0.00 | 0.06 | 0.06 | 78 | 1010.2 |
| 20260507181733 | 55 | 113 | 4.0 | 5.0 | 0.00 | 0.06 | 0.06 | 79 | 1010.3 |
| 20260507181230 | 56 | 145 | 1.0 | 3.0 | 0.00 | 0.06 | 0.06 | 80 | 1010.1 |
| 20260507180726 | 55 | 148 | 1.0 | 5.0 | 0.00 | 0.06 | 0.06 | 81 | 1010.3 |
| 20260507180223 | 55 | 119 | 2.0 | 3.0 | 0.00 | 0.06 | 0.06 | 82 | 1010.2 |
| 20260507175719 | 54 | 148 | 1.0 | 4.0 | 0.00 | 0.06 | 0.06 | 82 | 1010.5 |
| 20260507175216 | 54 | 131 | 0.0 | 5.0 | 0.00 | 0.06 | 0.06 | 82 | 1010.6 |
| 20260507174714 | 55 | 28 | 2.0 | 4.0 | 0.00 | 0.06 | 0.06 | 83 | 1010.7 |
| 20260507174211 | 55 | 114 | 4.0 | 5.0 | 0.00 | 0.06 | 0.06 | 83 | 1010.6 |
| 20260507173708 | 55 | 128 | 2.0 | 5.0 | 0.02 | 0.06 | 0.06 | 83 | 1010.5 |
| 20260507173205 | 55 | 113 | 2.0 | 3.0 | 0.02 | 0.06 | 0.06 | 84 | 1010.8 |
| 20260507172701 | 55 | 180 | 0.0 | 3.0 | 0.00 | 0.06 | 0.06 | 84 | 1010.6 |
| 20260507172158 | 54 | 135 | 4.0 | 4.0 | 0.09 | 0.06 | 0.06 | 83 | 1010.6 |
| 20260507171653 | 55 | 124 | 2.0 | 3.0 | 0.09 | 0.06 | 0.06 | 83 | 1011.1 |
| 20260507171150 | 55 | 90 | 0.0 | 3.0 | 0.00 | 0.04 | 0.04 | 83 | 1010.6 |
| 20260507170647 | 55 | 111 | 3.0 | 3.0 | 0.00 | 0.04 | 0.04 | 83 | 1010.9 |
| 20260507170144 | 55 | 331 | 0.0 | 2.0 | 0.00 | 0.04 | 0.04 | 84 | 1010.8 |
| 20260507165640 | 55 | 114 | 2.0 | 3.0 | 0.00 | 0.04 | 0.04 | 85 | 1010.9 |
| 20260507165136 | 55 | 354 | 0.0 | 4.0 | 0.00 | 0.04 | 0.04 | 85 | 1010.9 |
| 20260507164632 | 55 | 135 | 0.0 | 2.0 | 0.00 | 0.04 | 0.04 | 86 | 1011.1 |
| 20260507164130 | 54 | 14 | 1.0 | 5.0 | 0.00 | 0.04 | 0.04 | 86 | 1011.4 |
| 20260507163627 | 54 | 0 | 2.0 | 3.0 | 0.00 | 0.04 | 0.04 | 86 | 1011.3 |
| 20260507163125 | 54 | 203 | 2.0 | 4.0 | 0.00 | 0.04 | 0.04 | 87 | 1011.2 |
| 20260507162620 | 54 | 131 | 3.0 | 3.0 | 0.00 | 0.04 | 0.04 | 87 | 1011.3 |
| 20260507162117 | 55 | 90 | 0.0 | 2.0 | 0.00 | 0.04 | 0.04 | 88 | 1011.1 |
| 20260507161613 | 54 | 108 | 3.0 | 7.0 | 0.00 | 0.04 | 0.04 | 88 | 1011.4 |
| 20260507161110 | 54 | 336 | 2.0 | 3.0 | 0.00 | 0.04 | 0.04 | 88 | 1011.5 |
| 20260507160606 | 55 | 106 | 0.0 | 3.0 | 0.00 | 0.04 | 0.04 | 89 | 1011.5 |
| 20260507155557 | 55 | 180 | 0.0 | 2.0 | 0.00 | 0.04 | 0.04 | 90 | 1011.7 |
| 20260507155055 | 54 | 270 | 1.0 | 4.0 | 0.00 | 0.04 | 0.04 | 90 | 1011.7 |
| 20260507154552 | 54 | 190 | 2.0 | 4.0 | 0.00 | 0.04 | 0.04 | 90 | 1011.5 |
| 20260507154049 | 54 | 119 | 2.0 | 4.0 | 0.00 | 0.04 | 0.04 | 90 | 1011.8 |
| 20260507153545 | 55 | 145 | 0.0 | 1.0 | 0.00 | 0.04 | 0.04 | 90 | 1011.8 |
| 20260507153042 | 54 | 124 | 2.0 | 4.0 | 0.00 | 0.04 | 0.04 | 90 | 1012.0 |
| 20260507152538 | 54 | 314 | 3.0 | 5.0 | 0.00 | 0.04 | 0.04 | 90 | 1011.8 |
| 20260507152034 | 55 | 151 | 0.0 | 2.0 | 0.00 | 0.04 | 0.04 | 90 | 1011.8 |
| 20260507151530 | 55 | 345 | 0.0 | 5.0 | 0.00 | 0.04 | 0.04 | 90 | 1011.6 |
| 20260507151028 | 55 | 349 | 4.0 | 4.0 | 0.00 | 0.04 | 0.04 | 90 | 1011.4 |
| 20260507150525 | 56 | 117 | 2.0 | 2.0 | 0.00 | 0.04 | 0.04 | 90 | 1011.4 |
| 20260507150021 | 56 | 141 | 2.0 | 2.0 | 0.00 | 0.04 | 0.04 | 90 | 1011.6 |
| 20260507145516 | 56 | 90 | 2.0 | 2.0 | 0.02 | 0.04 | 0.04 | 90 | 1011.4 |
| 20260507145015 | 56 | 0 | 0.0 | 1.0 | 0.02 | 0.04 | 0.04 | 89 | 1011.5 |
| 20260507144510 | 56 | 148 | 0.0 | 2.0 | 0.00 | 0.04 | 0.04 | 89 | 1011.3 |
| 20260507144008 | 55 | 346 | 0.0 | 2.0 | 0.02 | 0.04 | 0.04 | 88 | 1011.8 |
| 20260507143505 | 56 | 117 | 2.0 | 3.0 | 0.00 | 0.03 | 0.03 | 88 | 1011.8 |
| 20260507143002 | 55 | 119 | 2.0 | 3.0 | 0.02 | 0.03 | 0.03 | 87 | 1011.8 |
| 20260507142458 | 55 | 337 | 0.0 | 2.0 | 0.12 | 0.03 | 0.03 | 86 | 1011.8 |
| 20260507141955 | 55 | 101 | 2.0 | 3.0 | 0.12 | 0.03 | 0.03 | 86 | 1011.7 |
| 20260507141450 | 55 | 132 | 2.0 | 3.0 | 0.00 | 0.01 | 0.01 | 86 | 1011.9 |
| 20260507140948 | 55 | 109 | 0.0 | 5.0 | 0.00 | 0.01 | 0.01 | 85 | 1011.7 |
| 20260507140444 | 55 | 112 | 3.0 | 4.0 | 0.00 | 0.01 | 0.01 | 85 | 1011.9 |
| 20260507135942 | 56 | 151 | 2.0 | 5.0 | 0.00 | 0.01 | 0.01 | 85 | 1012.0 |
| 20260507135438 | 56 | 82 | 0.0 | 2.0 | 0.00 | 0.01 | 0.01 | 84 | 1011.9 |
| 20260507134936 | 56 | 324 | 3.0 | 3.0 | 0.00 | 0.01 | 0.01 | 84 | 1012.0 |
| 20260507134432 | 56 | 123 | 3.0 | 8.0 | 0.00 | 0.01 | 0.01 | 84 | 1012.0 |
| 20260507133928 | 56 | 203 | 2.0 | 3.0 | 0.00 | 0.01 | 0.01 | 84 | 1012.0 |
| 20260507133425 | 56 | 141 | 4.0 | 6.0 | 0.00 | 0.01 | 0.01 | 84 | 1012.0 |
| 20260507132923 | 56 | 90 | 0.0 | 5.0 | 0.00 | 0.01 | 0.01 | 84 | 1011.8 |
| 20260507132419 | 56 | 0 | 3.0 | 3.0 | 0.00 | 0.01 | 0.01 | 84 | 1012.1 |
| 20260507131916 | 56 | 90 | 0.0 | 5.0 | 0.00 | 0.01 | 0.01 | 84 | 1011.9 |
| 20260507131413 | 56 | 0 | 1.0 | 3.0 | 0.00 | 0.01 | 0.01 | 84 | 1012.0 |
| 20260507130910 | 56 | 342 | 0.0 | 4.0 | 0.00 | 0.01 | 0.01 | 84 | 1012.0 |
| 20260507130407 | 56 | 352 | 3.0 | 3.0 | 0.00 | 0.01 | 0.01 | 84 | 1011.9 |
| 20260507125906 | 56 | 23 | 1.0 | 2.0 | 0.00 | 0.01 | 0.01 | 84 | 1011.9 |
| 20260507125403 | 56 | 148 | 2.0 | 2.0 | 0.00 | 0.01 | 0.01 | 85 | 1011.7 |
| 20260507124900 | 56 | 90 | 1.0 | 4.0 | 0.00 | 0.01 | 0.01 | 85 | 1011.6 |
| 20260507124356 | 56 | 97 | 4.0 | 9.0 | 0.00 | 0.01 | 0.01 | 85 | 1011.7 |
| 20260507123855 | 56 | 54 | 0.0 | 4.0 | 0.00 | 0.01 | 0.01 | 85 | 1011.6 |
| 20260507123351 | 55 | 103 | 0.0 | 3.0 | 0.00 | 0.01 | 0.01 | 86 | 1011.6 |
| 20260507122848 | 56 | 180 | 0.0 | 6.0 | 0.00 | 0.01 | 0.01 | 86 | 1011.7 |
| 20260507122343 | 55 | 90 | 0.0 | 4.0 | 0.00 | 0.01 | 0.01 | 86 | 1011.5 |
| 20260507121840 | 55 | 21 | 2.0 | 2.0 | 0.00 | 0.01 | 0.01 | 86 | 1011.9 |
| 20260507121335 | 55 | 5 | 1.0 | 9.0 | 0.00 | 0.01 | 0.01 | 87 | 1011.6 |
| 20260507120832 | 55 | 233 | 2.0 | 4.0 | 0.00 | 0.01 | 0.01 | 88 | 1011.5 |
| 20260507120328 | 55 | 162 | 5.0 | 5.0 | 0.00 | 0.01 | 0.01 | 88 | 1011.4 |
| 20260507115825 | 55 | 124 | 0.0 | 2.0 | 0.00 | 0.01 | 0.01 | 89 | 1011.3 |
| 20260507115320 | 55 | 349 | 1.0 | 5.0 | 0.00 | 0.01 | 0.01 | 89 | 1011.5 |
| 20260507114816 | 55 | 0 | 1.0 | 3.0 | 0.00 | 0.01 | 0.01 | 90 | 1011.5 |
| 20260507114314 | 55 | 265 | 2.0 | 2.0 | 0.00 | 0.01 | 0.01 | 90 | 1011.6 |
| 20260507113811 | 55 | 15 | 0.0 | 1.0 | 0.00 | 0.01 | 0.01 | 90 | 1011.3 |
| 20260507113308 | 55 | 99 | 0.0 | 3.0 | 0.00 | 0.01 | 0.01 | 91 | 1011.2 |
| 20260507112806 | 55 | 111 | 3.0 | 3.0 | 0.00 | 0.01 | 0.01 | 91 | 1011.2 |
| 20260507112306 | 54 | 90 | 2.0 | 3.0 | 0.00 | 0.01 | 0.01 | 92 | 1011.3 |
| 20260507111800 | 54 | 112 | 2.0 | 3.0 | 0.00 | 0.01 | 0.01 | 92 | 1011.1 |
| 20260507111256 | 54 | 320 | 3.0 | 3.0 | 0.00 | 0.01 | 0.01 | 92 | 1011.0 |
| 20260507110752 | 54 | 117 | 2.0 | 2.0 | 0.00 | 0.01 | 0.01 | 93 | 1010.8 |
| 20260507110249 | 54 | 337 | 2.0 | 3.0 | 0.00 | 0.01 | 0.01 | 94 | 1010.7 |
| 20260507105746 | 54 | 0 | 0.0 | 6.0 | 0.00 | 0.01 | 0.01 | 94 | 1010.6 |
| 20260507105242 | 54 | 285 | 1.0 | 5.0 | 0.00 | 0.01 | 0.01 | 95 | 1010.8 |
| 20260507104740 | 54 | 135 | 3.0 | 5.0 | 0.00 | 0.01 | 0.01 | 95 | 1010.6 |
| 20260507104236 | 54 | 29 | 2.0 | 8.0 | 0.00 | 0.01 | 0.01 | 95 | 1010.7 |
| 20260507103732 | 55 | 180 | 0.0 | 2.0 | 0.00 | 0.01 | 0.01 | 95 | 1010.5 |
| 20260507103228 | 55 | 171 | 0.0 | 2.0 | 0.00 | 0.01 | 0.01 | 96 | 1010.5 |
| 20260507102725 | 55 | 15 | 0.0 | 2.0 | 0.00 | 0.01 | 0.01 | 96 | 1010.8 |
| 20260507102221 | 55 | 148 | 0.0 | 0.0 | 0.00 | 0.01 | 0.01 | 96 | 1010.6 |
| 20260507101718 | 55 | 154 | 0.0 | 2.0 | 0.00 | 0.01 | 0.01 | 96 | 1010.6 |
| 20260507101213 | 55 | 7 | 0.0 | 2.0 | 0.00 | 0.01 | 0.01 | 96 | 1010.9 |
| 20260507100710 | 55 | 165 | 0.0 | 0.0 | 0.00 | 0.01 | 0.01 | 96 | 1010.2 |
| 20260507100209 | 55 | 151 | 1.0 | 3.0 | 0.00 | 0.01 | 0.01 | 96 | 1010.2 |
| 20260507095707 | 55 | 90 | 0.0 | 0.0 | 0.00 | 0.01 | 0.01 | 96 | 1010.5 |
| 20260507095203 | 55 | 346 | 0.0 | 1.0 | 0.00 | 0.01 | 0.01 | 96 | 1010.8 |
| 20260507094659 | 55 | 81 | 0.0 | 1.0 | 0.00 | 0.01 | 0.01 | 97 | 1010.2 |
| 20260507094156 | 56 | 285 | 1.0 | 1.0 | 0.00 | 0.01 | 0.01 | 97 | 1010.0 |
| 20260507093653 | 56 | 270 | 0.0 | 2.0 | 0.00 | 0.01 | 0.01 | 97 | 1010.0 |
| 20260507093152 | 56 | 126 | 0.0 | 2.0 | 0.00 | 0.01 | 0.01 | 97 | 1010.1 |
| 20260507092649 | 56 | 277 | 1.0 | 1.0 | 0.00 | 0.01 | 0.01 | 97 | 1010.1 |
| 20260507092145 | 56 | 0 | 0.0 | 1.0 | 0.00 | 0.01 | 0.01 | 97 | 1010.3 |
| 20260507091642 | 56 | 262 | 0.0 | 2.0 | 0.00 | 0.01 | 0.01 | 97 | 1010.5 |
| 20260507091138 | 56 | 158 | 2.0 | 2.0 | 0.00 | 0.01 | 0.01 | 97 | 1010.5 |
| 20260507090633 | 56 | 106 | 0.0 | 2.0 | 0.00 | 0.01 | 0.01 | 97 | 1010.1 |
| 20260507090131 | 56 | 259 | 2.0 | 3.0 | 0.00 | 0.01 | 0.01 | 97 | 1010.2 |
| 20260507085628 | 56 | 215 | 0.0 | 2.0 | 0.00 | 0.01 | 0.01 | 98 | 1009.9 |
| 20260507085125 | 56 | 114 | 0.0 | 2.0 | 0.00 | 0.01 | 0.01 | 98 | 1010.1 |
| 20260507084621 | 56 | 0 | 0.0 | 9.0 | 0.00 | 0.01 | 0.01 | 98 | 1009.9 |
| 20260507084118 | 57 | 103 | 2.0 | 8.0 | 0.00 | 0.01 | 0.01 | 98 | 1010.1 |
| 20260507083615 | 57 | 221 | 2.0 | 8.0 | 0.00 | 0.01 | 0.01 | 98 | 1009.9 |
| 20260507083112 | 57 | 320 | 0.0 | 2.0 | 0.00 | 0.01 | 0.01 | 98 | 1010.0 |
| 20260507082608 | 57 | 234 | 0.0 | 1.0 | 0.00 | 0.01 | 0.01 | 98 | 1010.0 |
| 20260507082104 | 57 | 146 | 0.0 | 2.0 | 0.00 | 0.01 | 0.01 | 98 | 1009.6 |
| 20260507081601 | 58 | 220 | 0.0 | 2.0 | 0.00 | 0.01 | 0.01 | 98 | 1009.6 |
| 20260507081058 | 58 | 23 | 1.0 | 5.0 | 0.00 | 0.01 | 0.01 | 98 | 1009.6 |
| 20260507080553 | 58 | 263 | 1.0 | 3.0 | 0.00 | 0.01 | 0.01 | 98 | 1009.4 |
| 20260507080050 | 58 | 212 | 2.0 | 3.0 | 0.00 | 0.01 | 0.01 | 98 | 1009.5 |
| 20260507075545 | 58 | 306 | 1.0 | 3.0 | 0.00 | 0.01 | 0.01 | 98 | 1009.6 |
| 20260507075042 | 59 | 127 | 2.0 | 5.0 | 0.00 | 0.01 | 0.01 | 98 | 1009.5 |
| 20260507074539 | 59 | 6 | 1.0 | 3.0 | 0.00 | 0.01 | 0.01 | 98 | 1009.5 |
| 20260507074037 | 59 | 311 | 2.0 | 2.0 | 0.00 | 0.01 | 0.01 | 98 | 1009.6 |
| 20260507073533 | 59 | 355 | 2.0 | 3.0 | 0.00 | 0.01 | 0.01 | 98 | 1009.6 |
| 20260507073030 | 60 | 286 | 0.0 | 2.0 | 0.00 | 0.01 | 0.01 | 98 | 1009.5 |
| 20260507072527 | 60 | 90 | 1.0 | 4.0 | 0.00 | 0.01 | 0.01 | 98 | 1009.0 |
| 20260507072024 | 60 | 113 | 2.0 | 5.0 | 0.00 | 0.01 | 0.01 | 98 | 1009.0 |
| 20260507071522 | 61 | 145 | 4.0 | 4.0 | 0.00 | 0.01 | 0.01 | 98 | 1009.2 |
| 20260507071018 | 62 | 328 | 3.0 | 4.0 | 0.00 | 0.01 | 0.01 | 98 | 1008.9 |
| 20260507070515 | 62 | 60 | 0.0 | 1.0 | 0.00 | 0.01 | 0.01 | 98 | 1008.9 |
| 20260507070013 | 62 | 101 | 3.0 | 5.0 | 0.00 | 0.01 | 0.01 | 98 | 1008.8 |
| 20260507065508 | 63 | 300 | 2.0 | 2.0 | 0.00 | 0.01 | 0.01 | 98 | 1008.6 |
| 20260507065006 | 64 | 99 | 0.0 | 3.0 | 0.00 | 0.01 | 0.01 | 98 | 1008.5 |
| 20260507064504 | 64 | 324 | 0.0 | 3.0 | 0.00 | 0.01 | 0.01 | 98 | 1008.5 |
| 20260507064002 | 64 | 294 | 0.0 | 2.0 | 0.00 | 0.01 | 0.01 | 98 | 1008.5 |
| 20260507063458 | 64 | 262 | 0.0 | 4.0 | 0.00 | 0.01 | 0.01 | 98 | 1008.8 |
| 20260507062956 | 64 | 345 | 0.0 | 2.0 | 0.00 | 0.01 | 0.01 | 98 | 1008.8 |
| 20260507062452 | 64 | 270 | 1.0 | 2.0 | 0.00 | 0.01 | 0.01 | 98 | 1009.1 |
| 20260507061950 | 64 | 279 | 0.0 | 0.0 | 0.00 | 0.01 | 0.01 | 98 | 1009.0 |
| 20260507061448 | 64 | 114 | 0.0 | 2.0 | 0.00 | 0.01 | 0.01 | 97 | 1009.2 |
| 20260507060946 | 64 | 106 | 0.0 | 0.0 | 0.00 | 0.01 | 0.01 | 97 | 1008.9 |
| 20260507060442 | 64 | 194 | 0.0 | 2.0 | 0.00 | 0.01 | 0.01 | 97 | 1009.1 |
| 20260507055939 | 64 | 120 | 0.0 | 1.0 | 0.00 | 0.01 | 0.01 | 97 | 1008.9 |
| 20260507055434 | 64 | 105 | 0.0 | 2.0 | 0.00 | 0.01 | 0.01 | 97 | 1008.6 |
| 20260507054931 | 64 | 90 | 0.0 | 2.0 | 0.00 | 0.01 | 0.01 | 97 | 1008.8 |
| 20260507054427 | 64 | 105 | 0.0 | 2.0 | 0.00 | 0.01 | 0.01 | 97 | 1008.8 |
| 20260507053925 | 64 | 261 | 0.0 | 1.0 | 0.00 | 0.01 | 0.01 | 97 | 1008.7 |
| 20260507053422 | 64 | 160 | 0.0 | 2.0 | 0.00 | 0.01 | 0.01 | 97 | 1008.4 |
| 20260507052921 | 64 | 249 | 0.0 | 1.0 | 0.00 | 0.01 | 0.01 | 97 | 1008.4 |
| 20260507052418 | 64 | 246 | 0.0 | 0.0 | 0.00 | 0.01 | 0.01 | 97 | 1007.8 |
| 20260507051915 | 64 | 246 | 0.0 | 1.0 | 0.00 | 0.01 | 0.01 | 96 | 1007.7 |
| 20260507051413 | 64 | 249 | 0.0 | 1.0 | 0.00 | 0.01 | 0.01 | 96 | 1007.6 |
| 20260507050909 | 64 | 261 | 0.0 | 0.0 | 0.00 | 0.01 | 0.01 | 96 | 1007.9 |
| 20260507050406 | 64 | 106 | 0.0 | 2.0 | 0.00 | 0.01 | 0.01 | 96 | 1007.9 |
| 20260507045903 | 65 | 251 | 0.0 | 2.0 | 0.00 | 0.01 | 0.01 | 95 | 1008.0 |
| 20260507045359 | 65 | 106 | 0.0 | 2.0 | 0.02 | 0.01 | 0.01 | 95 | 1007.8 |
| 20260507044856 | 65 | 109 | 1.0 | 2.0 | 0.02 | 0.01 | 0.01 | 95 | 1008.1 |
| 20260507044353 | 65 | 225 | 0.0 | 0.0 | 0.00 | 0.00 | 0.00 | 95 | 1008.3 |
| 20260507043849 | 65 | 225 | 0.0 | 2.0 | 0.00 | 0.00 | 0.00 | 95 | 1008.4 |
| 20260507043346 | 65 | 254 | 0.0 | 0.0 | 0.00 | 0.00 | 0.00 | 95 | 1008.7 |
| 20260507042842 | 65 | 246 | 0.0 | 2.0 | 0.00 | 0.00 | 0.00 | 94 | 1008.8 |
| 20260507042338 | 65 | 160 | 0.0 | 2.0 | 0.02 | 0.00 | 0.00 | 94 | 1008.8 |
| 20260507041835 | 65 | 240 | 1.0 | 2.0 | 0.02 | 0.00 | 0.00 | 94 | 1008.8 |
| 20260507041331 | 66 | 276 | 1.0 | 2.0 | 0.00 | 0.00 | 0.00 | 93 | 1008.7 |
| 20260507040829 | 65 | 255 | 0.0 | 2.0 | 0.02 | 0.00 | 0.00 | 93 | 1008.4 |
| 20260507040324 | 65 | 277 | 1.0 | 3.0 | 0.02 | 0.00 | 0.00 | 92 | 1008.5 |
| 20260507035821 | 66 | 286 | 0.0 | 1.0 | 0.00 | 0.04 | 0.04 | 92 | 1008.3 |
| 20260507035316 | 66 | 225 | 0.0 | 3.0 | 0.02 | 0.04 | 0.04 | 92 | 1008.3 |
| 20260507034814 | 66 | 243 | 2.0 | 5.0 | 0.02 | 0.04 | 0.04 | 91 | 1008.3 |
| 20260507034311 | 66 | 294 | 0.0 | 3.0 | 0.00 | 0.04 | 0.04 | 91 | 1008.8 |
| 20260507033809 | 66 | 248 | 5.0 | 7.0 | 0.00 | 0.04 | 0.04 | 91 | 1008.9 |
| 20260507033306 | 66 | 204 | 2.0 | 4.0 | 0.00 | 0.04 | 0.04 | 90 | 1008.9 |
| 20260507032803 | 66 | 126 | 1.0 | 4.0 | 0.00 | 0.04 | 0.04 | 90 | 1009.1 |
| 20260507032259 | 66 | 228 | 2.0 | 3.0 | 0.00 | 0.04 | 0.04 | 90 | 1009.0 |
| 20260507031756 | 66 | 300 | 1.0 | 4.0 | 0.00 | 0.04 | 0.04 | 91 | 1008.5 |
| 20260507031253 | 66 | 127 | 2.0 | 4.0 | 0.00 | 0.04 | 0.04 | 91 | 1008.4 |
| 20260507030749 | 66 | 229 | 2.0 | 3.0 | 0.00 | 0.04 | 0.04 | 90 | 1008.6 |
| 20260507030247 | 66 | 255 | 2.0 | 3.0 | 0.00 | 0.04 | 0.04 | 91 | 1008.6 |
| 20260507025744 | 66 | 334 | 2.0 | 2.0 | 0.00 | 0.04 | 0.04 | 91 | 1008.5 |
| 20260507025241 | 66 | 244 | 3.0 | 3.0 | 0.00 | 0.04 | 0.04 | 91 | 1008.7 |
| 20260507024739 | 66 | 180 | 2.0 | 3.0 | 0.00 | 0.04 | 0.04 | 91 | 1008.6 |
| 20260507024236 | 66 | 140 | 5.0 | 5.0 | 0.00 | 0.04 | 0.04 | 91 | 1008.5 |
| 20260507023731 | 66 | 117 | 3.0 | 3.0 | 0.00 | 0.04 | 0.04 | 91 | 1009.0 |
| 20260507023229 | 66 | 180 | 0.0 | 2.0 | 0.00 | 0.04 | 0.04 | 91 | 1009.0 |
| 20260507022726 | 66 | 278 | 0.0 | 2.0 | 0.00 | 0.04 | 0.04 | 91 | 1008.8 |
| 20260507022222 | 66 | 331 | 1.0 | 2.0 | 0.00 | 0.04 | 0.04 | 91 | 1008.5 |
| 20260507021718 | 66 | 255 | 2.0 | 5.0 | 0.00 | 0.04 | 0.04 | 91 | 1008.4 |
| 20260507021214 | 66 | 323 | 0.0 | 2.0 | 0.00 | 0.04 | 0.04 | 90 | 1008.0 |
| 20260507020713 | 66 | 255 | 1.0 | 2.0 | 0.00 | 0.04 | 0.04 | 90 | 1008.2 |
| 20260507020208 | 66 | 233 | 2.0 | 3.0 | 0.00 | 0.04 | 0.04 | 90 | 1007.8 |
| 20260507015706 | 66 | 243 | 0.0 | 3.0 | 0.00 | 0.04 | 0.04 | 90 | 1007.7 |
| 20260507015203 | 66 | 166 | 0.0 | 5.0 | 0.00 | 0.04 | 0.04 | 90 | 1007.8 |
| 20260507014700 | 66 | 294 | 1.0 | 3.0 | 0.00 | 0.04 | 0.04 | 90 | 1008.1 |
| 20260507014156 | 66 | 213 | 2.0 | 3.0 | 0.00 | 0.04 | 0.04 | 90 | 1008.5 |
| 20260507013653 | 66 | 270 | 0.0 | 4.0 | 0.00 | 0.04 | 0.04 | 89 | 1008.3 |
| 20260507013150 | 66 | 220 | 3.0 | 3.0 | 0.00 | 0.04 | 0.04 | 89 | 1008.6 |
| 20260507012648 | 66 | 262 | 1.0 | 3.0 | 0.00 | 0.04 | 0.04 | 89 | 1008.4 |
| 20260507012143 | 66 | 246 | 0.0 | 1.0 | 0.00 | 0.04 | 0.04 | 88 | 1008.3 |
| 20260507011641 | 66 | 345 | 1.0 | 2.0 | 0.00 | 0.04 | 0.04 | 88 | 1008.1 |
| 20260507011137 | 67 | 164 | 3.0 | 3.0 | 0.00 | 0.04 | 0.04 | 88 | 1008.4 |
| 20260507010632 | 67 | 188 | 0.0 | 0.0 | 0.00 | 0.04 | 0.04 | 88 | 1008.6 |
| 20260507010128 | 67 | 243 | 1.0 | 3.0 | 0.00 | 0.04 | 0.04 | 87 | 1008.7 |
| 20260507005626 | 67 | 120 | 0.0 | 3.0 | 0.00 | 0.04 | 0.04 | 87 | 1008.7 |
| 20260507005121 | 67 | 264 | 0.0 | 1.0 | 0.00 | 0.04 | 0.04 | 87 | 1008.6 |
| 20260507004619 | 67 | 270 | 0.0 | 5.0 | 0.00 | 0.04 | 0.04 | 87 | 1008.6 |
| 20260507004116 | 67 | 270 | 3.0 | 5.0 | 0.00 | 0.04 | 0.04 | 87 | 1008.3 |
| 20260507003612 | 67 | 0 | 0.0 | 3.0 | 0.00 | 0.04 | 0.04 | 86 | 1008.4 |
| 20260507003107 | 67 | 74 | 0.0 | 3.0 | 0.00 | 0.04 | 0.04 | 86 | 1008.3 |
| 20260507002604 | 67 | 168 | 1.0 | 4.0 | 0.00 | 0.04 | 0.04 | 86 | 1008.3 |
| 20260507002059 | 68 | 341 | 2.0 | 2.0 | 0.00 | 0.04 | 0.04 | 85 | 1008.3 |
| 20260507001557 | 68 | 165 | 2.0 | 2.0 | 0.00 | 0.04 | 0.04 | 85 | 1008.5 |
| 20260507001054 | 68 | 229 | 0.0 | 4.0 | 0.00 | 0.04 | 0.04 | 85 | 1008.5 |
| 20260507000550 | 68 | 270 | 0.0 | 2.0 | 0.00 | 0.04 | 0.04 | 84 | 1008.2 |
| 20260507000046 | 68 | 66 | 1.0 | 5.0 | 0.00 | 0.04 | 0.04 | 84 | 1008.2 |
| 20260506235543 | 68 | 270 | 0.0 | 2.0 | 0.00 | 0.04 | 0.04 | 83 | 1008.2 |
| 20260506235038 | 69 | 250 | 0.0 | 3.0 | 0.00 | 0.04 | 0.04 | 83 | 1008.1 |
| 20260506234536 | 69 | 214 | 2.0 | 4.0 | 0.00 | 0.04 | 0.04 | 83 | 1007.9 |
| 20260506234033 | 69 | 251 | 3.0 | 6.0 | 0.00 | 0.04 | 0.04 | 83 | 1007.9 |
| 20260506233530 | 69 | 248 | 2.0 | 5.0 | 0.00 | 0.04 | 0.04 | 82 | 1007.9 |
| 20260506233027 | 69 | 260 | 5.0 | 8.0 | 0.00 | 0.04 | 0.04 | 82 | 1008.4 |
| 20260506232523 | 69 | 145 | 3.0 | 4.0 | 0.00 | 0.04 | 0.04 | 82 | 1008.4 |
| 20260506232019 | 69 | 175 | 0.0 | 4.0 | 0.00 | 0.04 | 0.04 | 81 | 1008.5 |
| 20260506231516 | 70 | 216 | 0.0 | 7.0 | 0.00 | 0.04 | 0.04 | 81 | 1008.7 |
| 20260506231014 | 70 | 334 | 1.0 | 8.0 | 0.00 | 0.04 | 0.04 | 81 | 1008.5 |
| 20260506230510 | 70 | 249 | 4.0 | 9.0 | 0.00 | 0.04 | 0.04 | 81 | 1008.2 |
| 20260506230008 | 70 | 277 | 1.0 | 5.0 | 0.00 | 0.04 | 0.04 | 81 | 1008.1 |
| 20260506225504 | 70 | 135 | 0.0 | 8.0 | 0.00 | 0.04 | 0.04 | 80 | 1007.8 |
| 20260506225001 | 71 | 352 | 0.0 | 4.0 | 0.00 | 0.04 | 0.04 | 80 | 1008.0 |
| 20260506224458 | 71 | 106 | 4.0 | 12.0 | 0.00 | 0.04 | 0.04 | 80 | 1007.9 |
| 20260506223954 | 71 | 237 | 4.0 | 6.0 | 0.00 | 0.04 | 0.04 | 80 | 1007.6 |
| 20260506223450 | 71 | 239 | 0.0 | 5.0 | 0.00 | 0.04 | 0.04 | 80 | 1007.6 |
| 20260506222947 | 71 | 190 | 2.0 | 10.0 | 0.00 | 0.04 | 0.04 | 80 | 1008.0 |
| 20260506222443 | 71 | 121 | 6.0 | 8.0 | 0.00 | 0.04 | 0.04 | 80 | 1007.9 |
| 20260506221935 | 71 | 70 | 2.0 | 10.0 | 0.00 | 0.04 | 0.04 | 80 | 1007.7 |
| 20260506221432 | 71 | 157 | 0.0 | 10.0 | 0.00 | 0.04 | 0.04 | 80 | 1007.5 |
| 20260506220930 | 71 | 253 | 6.0 | 9.0 | 0.00 | 0.04 | 0.04 | 80 | 1007.7 |
| 20260506220425 | 71 | 119 | 10.0 | 10.0 | 0.00 | 0.04 | 0.04 | 80 | 1007.8 |
| 20260506215922 | 71 | 256 | 6.0 | 10.0 | 0.00 | 0.04 | 0.04 | 80 | 1007.8 |
| 20260506215418 | 71 | 327 | 2.0 | 7.0 | 0.00 | 0.04 | 0.04 | 80 | 1007.9 |
| 20260506214914 | 71 | 151 | 3.0 | 14.0 | 0.00 | 0.04 | 0.04 | 79 | 1007.8 |
| 20260506214411 | 71 | 159 | 7.0 | 9.0 | 0.00 | 0.04 | 0.04 | 79 | 1008.0 |
| 20260506213909 | 71 | 264 | 3.0 | 9.0 | 0.00 | 0.04 | 0.04 | 79 | 1008.0 |
| 20260506213407 | 71 | 348 | 2.0 | 11.0 | 0.00 | 0.04 | 0.04 | 79 | 1007.6 |
| 20260506212904 | 71 | 248 | 5.0 | 7.0 | 0.00 | 0.04 | 0.04 | 79 | 1007.4 |
| 20260506212359 | 71 | 168 | 2.0 | 6.0 | 0.00 | 0.04 | 0.04 | 79 | 1007.5 |
| 20260506211854 | 71 | 148 | 2.0 | 8.0 | 0.00 | 0.04 | 0.04 | 79 | 1007.6 |